Location: Frydek-Mistek
(49.6830°N, 18.3330°E)
Time: 11:11:47
(UTC+02:00)

Courier 1B Rocket - All Passes

Search period start: 18 June 2018 00:00
Search period end: 28 June 2018 00:00
Orbit: 920 x 1202 km, 28.3° (Epoch: 17 June)

Date Brightness Start Highest point End Pass type
(mag) Time Alt. Az. Time Alt. Az. Time Alt. Az.
18 Jun - 13:05:36 10° SSW 13:09:11 14° S 13:12:47 10° SSE daylight
18 Jun - 14:58:47 10° SSW 15:01:19 12° SSW 15:03:51 10° S daylight
19 Jun - 12:05:23 10° SSW 12:08:27 13° S 12:11:33 10° SSE daylight
19 Jun - 13:57:17 10° SSW 14:00:36 13° S 14:03:55 10° SSE daylight
20 Jun - 11:05:58 10° S 11:07:46 11° SSE 11:09:34 10° SSE daylight
20 Jun - 12:56:20 10° SSW 12:59:51 14° S 13:03:25 10° SSE daylight
21 Jun - 11:55:48 10° SSW 11:59:08 13° S 12:02:31 10° SSE daylight
21 Jun - 13:48:53 10° SSW 13:51:15 12° SSW 13:53:38 10° S daylight
22 Jun - 10:55:45 10° SSW 10:58:26 12° S 11:01:10 10° SSE daylight
22 Jun - 12:47:29 10° SSW 12:50:32 13° S 12:53:37 10° SSE daylight
23 Jun - 09:56:55 10° S 09:57:47 10° SSE 09:58:39 10° SSE daylight
23 Jun - 11:46:38 10° SSW 11:49:49 13° S 11:53:03 10° SSE daylight
24 Jun - 10:46:14 10° SSW 10:49:08 13° S 10:52:05 10° SSE daylight
24 Jun - 12:39:23 10° SSW 12:41:13 11° SSW 12:43:04 10° S daylight
25 Jun - 09:46:25 10° S 09:48:29 11° S 09:50:35 10° SSE daylight
25 Jun - 11:37:59 10° SSW 11:40:32 12° S 11:43:08 10° SSE daylight
26 Jun - 10:37:13 10° SSW 10:39:51 12° S 10:42:32 10° SSE daylight
27 Jun - 09:36:58 10° SSW 09:39:13 12° S 09:41:30 10° SSE daylight
27 Jun - 11:30:51 10° SSW 11:31:14 10° SSW 11:31:37 10° S daylight
